Location: La Tine
(46.4708°N, 7.0525°E)
Time: 13:23:38
(UTC+00:00)

HJ-1C - Visible Passes

Search period start: 16 January 2021 00:00
Search period end: 26 January 2021 00:00
Orbit: 430 x 441 km, 97.1° (Epoch: 16 January)

Date Brightness Start Highest point End Pass type
(mag) Time Alt. Az. Time Alt. Az. Time Alt. Az.
20 Jan 7.0 06:18:17 10° ENE 06:19:24 11° E 06:20:30 10° ESE visible
22 Jan 6.6 06:31:18 10° NE 06:33:32 16° E 06:35:44 10° SE visible
22 Jan 6.2 18:40:47 11° NNW 18:40:47 11° NNW 18:40:57 10° NNW visible
23 Jan 5.5 18:00:47 15° NNE 18:00:47 15° NNE 18:01:29 10° N visible
24 Jan 5.6 17:20:46 10° NE 17:20:46 10° NE 17:20:55 10° NE visible
24 Jan 5.9 18:54:06 15° NNW 18:54:06 15° NNW 18:54:50 10° NNW visible
25 Jan 4.9 18:14:03 24° N 18:14:03 24° N 18:15:37 10° N visible
